map of USH home
USH - Airport
Location
City:  Ushuaia, Tierra del Fuego, Argentina
Name:Islas Malvinas Argentinas International Airport
ICAO:SAWH
IATA:USH

Details
Type:Airport (Aerodrome, Airfield)
Use:Public/Civil, International (customs port of entry)
Latitude:5450'36"S (-54.843277)
Longitude:6817'45"W (-68.295749)
Datum:WGS 1984
Elevation:71 ft (22 m)
Variation:12.34E (WMM2015 magnetic declination)
-0.07 annual change
Runways:1
Longest:9186 × 148 ft (2800 × 45 m), paved

Time
Time Zone:UTC-3
Local Time:

Weather
METAR:SAWH 150100Z 09004KT 9999 SCT045 SCT100 11/04 Q0990
TAF:SAWH 142300Z 1500/1524 29025KT 9999 BKN020 BKN030 TX18/1520Z TN07/1510Z
TEMPO 1513/1516 29020G35KT
BECMG 1520/1522 25020G30KT BKN015 BKN030
TEMPO 1521/1524 5000 SHRA

Related Locations
Nearby:
Farthest:UIUR: 12387 mi / 19935 km
Varvarinsk [Varvarinsk Airport], BU, RU

Find:

   beyond  
but within

Other Information
Maps:
NOTAMs:
Links:
Sources:

  
  • flag of Argentina
  

Sectional Chart

Flight Planning
at skyvector.com

Satellite Image

Google Maps Satellite view

 

Copyright © 2004-2018 Karl L. Swartz. All rights reserved.
The Great Circle Mapper name and logo are trademarks of the Great Circle Mapper.
All other trademarks mentioned herein belong to their respective owners.
Please see credits for attibutions and further copyright information.

  Follow gcmap on Facebook Follow gcmap on Twitter Follow gcmap on Google+ GCmap on LinkedIn

hCard Microformat

Geo Microformat